Volver al catálogo

SL-12 R/B(2)

ActivoMEO
NORAD 28512·ROCKET BODY·🇷🇺 Russia

Lanzado Dec 26, 2004 desde Baikonur Cosmodrome

Loading…

Próximos Pases (próximas 24 horas)

TLE

ActualizadoSource: Space-Track

Época: Sep 9, 2026, 21:25 UTC

1 28512U 04053E   26252.89280412 -.00000007  00000-0  00000+0 0  9998
2 28512  64.2827  56.6322 0024501 231.3886 127.0919  2.13315114169091

Sigue SL-12 R/B(2) en tiempo real con AllMySat

Download on the App Store